Time,TemperatureF,DewpointF,PressureIn,WindDirection,WindDirectionDegrees,WindSpeedMPH,WindSpeedGustMPH,Humidity,HourlyPrecipIn,Conditions,Clouds,dailyrainin,SoftwareType,DateUTC
2013-02-01 00:04:00,25.7,11.0,30.19,East,79,3.0,8.0,55,0.00,,,0.00,weatherlink.com 1.10,2013-02-01 07:04:00,
2013-02-01 00:19:00,26.1,11.0,30.19,East,94,2.0,5.0,53,0.00,,,0.00,weatherlink.com 1.10,2013-02-01 07:19:00,
2013-02-01 00:34:00,26.3,12.0,30.17,ESE,105,2.0,8.0,54,0.00,,,0.00,weatherlink.com 1.10,2013-02-01 07:34:00,
2013-02-01 00:49:00,26.4,11.0,30.17,ENE,70,2.0,10.0,52,0.00,,,0.00,weatherlink.com 1.10,2013-02-01 07:49:00,
2013-02-01 01:04:00,26.9,10.0,30.16,SSE,152,2.0,11.0,50,0.00,,,0.00,weatherlink.com 1.10,2013-02-01 08:04:00,
2013-02-01 01:19:00,27.0,11.0,30.17,North,354,3.0,12.0,50,0.00,,,0.00,weatherlink.com 1.10,2013-02-01 08:19:00,
2013-02-01 01:34:00,26.4,11.0,30.17,NNW,342,6.0,15.0,52,0.00,,,0.00,weatherlink.com 1.10,2013-02-01 08:34:00,
2013-02-01 01:49:00,26.5,11.0,30.16,ESE,103,0.0,19.0,53,0.00,,,0.00,weatherlink.com 1.10,2013-02-01 08:49:00,
2013-02-01 02:04:00,26.5,12.0,30.15,NNW,328,2.0,18.0,54,0.00,,,0.00,weatherlink.com 1.10,2013-02-01 09:04:00,
2013-02-01 02:19:00,26.7,12.0,30.16,SSE,153,6.0,22.0,55,0.00,,,0.00,weatherlink.com 1.10,2013-02-01 09:19:00,
2013-02-01 02:34:00,26.5,12.0,30.15,SSW,196,7.0,21.0,55,0.00,,,0.00,weatherlink.com 1.10,2013-02-01 09:34:00,
2013-02-01 02:49:00,26.4,13.0,30.15,SSW,201,4.0,15.0,58,0.00,,,0.00,weatherlink.com 1.10,2013-02-01 09:49:00,
2013-02-01 03:04:00,26.3,13.0,30.14,SSE,155,3.0,21.0,57,0.00,,,0.00,weatherlink.com 1.10,2013-02-01 10:04:00,
2013-02-01 03:19:00,26.4,13.0,30.15,South,185,5.0,18.0,57,0.00,,,0.00,weatherlink.com 1.10,2013-02-01 10:19:00,
2013-02-01 03:34:00,26.3,13.0,30.12,South,187,3.0,19.0,58,0.00,,,0.00,weatherlink.com 1.10,2013-02-01 10:34:00,
2013-02-01 03:49:00,26.3,13.0,30.12,ENE,65,10.0,21.0,57,0.00,,,0.00,weatherlink.com 1.10,2013-02-01 10:49:00,
2013-02-01 04:04:00,26.2,12.0,30.13,South,191,3.0,19.0,56,0.00,,,0.00,weatherlink.com 1.10,2013-02-01 11:04:00,
2013-02-01 04:19:00,26.7,12.0,30.13,SE,140,9.0,18.0,54,0.00,,,0.00,weatherlink.com 1.10,2013-02-01 11:19:00,
2013-02-01 04:34:00,26.7,12.0,30.15,South,175,11.0,17.0,53,0.00,,,0.00,weatherlink.com 1.10,2013-02-01 11:34:00,
2013-02-01 04:49:00,26.6,11.0,30.15,SSW,193,4.0,17.0,53,0.00,,,0.00,weatherlink.com 1.10,2013-02-01 11:49:00,
2013-02-01 05:04:00,26.6,12.0,30.15,ESE,120,4.0,14.0,54,0.00,,,0.00,weatherlink.com 1.10,2013-02-01 12:04:00,
2013-02-01 05:19:00,26.3,12.0,30.14,WSW,256,6.0,10.0,55,0.00,,,0.00,weatherlink.com 1.10,2013-02-01 12:19:00,
2013-02-01 05:34:00,26.3,12.0,30.14,West,264,5.0,10.0,55,0.00,,,0.00,weatherlink.com 1.10,2013-02-01 12:34:00,
2013-02-01 05:49:00,25.7,13.0,30.14,South,190,2.0,15.0,60,0.00,,,0.00,weatherlink.com 1.10,2013-02-01 12:49:00,
2013-02-01 06:04:00,25.4,14.0,30.14,SW,214,2.0,12.0,63,0.00,,,0.00,weatherlink.com 1.10,2013-02-01 13:04:00,
2013-02-01 06:19:00,25.3,14.0,30.14,SW,217,3.0,14.0,62,0.00,,,0.00,weatherlink.com 1.10,2013-02-01 13:19:00,
2013-02-01 06:34:00,25.2,14.0,30.16,SSE,148,5.0,12.0,62,0.00,,,0.00,weatherlink.com 1.10,2013-02-01 13:34:00,
2013-02-01 06:49:00,25.2,14.0,30.15,SE,144,3.0,13.0,62,0.00,,,0.00,weatherlink.com 1.10,2013-02-01 13:49:00,
2013-02-01 07:04:00,25.4,13.0,30.16,SE,126,4.0,18.0,60,0.00,,,0.00,weatherlink.com 1.10,2013-02-01 14:04:00,
2013-02-01 07:19:00,25.2,14.0,30.16,ESE,102,2.0,14.0,62,0.00,,,0.00,weatherlink.com 1.10,2013-02-01 14:19:00,
2013-02-01 07:34:00,25.4,13.0,30.16,SW,217,4.0,14.0,59,0.00,,,0.00,weatherlink.com 1.10,2013-02-01 14:34:00,
2013-02-01 07:50:00,25.8,13.0,30.16,NNW,331,2.0,12.0,59,0.00,,,0.00,weatherlink.com 1.10,2013-02-01 14:50:00,
2013-02-01 08:05:00,25.7,13.0,30.16,WSW,248,4.0,12.0,58,0.00,,,0.00,weatherlink.com 1.10,2013-02-01 15:05:00,
2013-02-01 08:20:00,26.6,13.0,30.16,SSE,165,3.0,12.0,57,0.00,,,0.00,weatherlink.com 1.10,2013-02-01 15:20:00,
2013-02-01 08:35:00,27.0,15.0,30.17,SW,236,2.0,10.0,60,0.00,,,0.00,weatherlink.com 1.10,2013-02-01 15:35:00,
2013-02-01 08:50:00,28.1,13.0,30.16,SE,132,2.0,7.0,53,0.00,,,0.00,weatherlink.com 1.10,2013-02-01 15:50:00,
2013-02-01 09:05:00,28.1,13.0,30.16,SE,130,1.0,4.0,54,0.00,,,0.00,weatherlink.com 1.10,2013-02-01 16:05:00,
2013-02-01 09:20:00,28.0,12.0,30.14,North,356,4.0,6.0,52,0.00,,,0.00,weatherlink.com 1.10,2013-02-01 16:20:00,
2013-02-01 09:35:00,29.8,13.0,30.12,SW,230,0.0,17.0,49,0.00,,,0.00,weatherlink.com 1.10,2013-02-01 16:35:00,
2013-02-01 09:50:00,31.0,11.0,30.12,ENE,63,8.0,15.0,43,0.00,,,0.00,weatherlink.com 1.10,2013-02-01 16:50:00,
2013-02-01 10:05:00,30.8,12.0,30.14,West,265,6.0,14.0,46,0.00,,,0.00,weatherlink.com 1.10,2013-02-01 17:05:00,
2013-02-01 10:20:00,30.7,11.0,30.13,South,178,5.0,22.0,44,0.00,,,0.00,weatherlink.com 1.10,2013-02-01 17:20:00,
2013-02-01 10:35:00,30.0,13.0,30.13,SSW,207,3.0,18.0,50,0.00,,,0.00,weatherlink.com 1.10,2013-02-01 17:35:00,
2013-02-01 10:50:00,30.2,14.0,30.14,West,269,7.0,12.0,51,0.00,,,0.00,weatherlink.com 1.10,2013-02-01 17:50:00,
2013-02-01 11:05:00,29.6,16.0,30.16,WSW,255,5.0,14.0,56,0.00,,,0.00,weatherlink.com 1.10,2013-02-01 18:05:00,
2013-02-01 11:20:00,30.0,14.0,30.14,SE,138,2.0,13.0,51,0.00,,,0.00,weatherlink.com 1.10,2013-02-01 18:20:00,
2013-02-01 11:35:00,29.9,16.0,30.16,East,98,6.0,11.0,57,0.00,,,0.00,weatherlink.com 1.10,2013-02-01 18:35:00,
2013-02-01 11:50:00,31.1,11.0,30.15,SSE,159,3.0,8.0,44,0.00,,,0.00,weatherlink.com 1.10,2013-02-01 18:50:00,
2013-02-01 12:05:00,31.1,14.0,30.16,SSE,152,1.0,6.0,50,0.00,,,0.00,weatherlink.com 1.10,2013-02-01 19:05:00,
2013-02-01 12:20:00,29.6,18.0,30.14,South,176,0.0,5.0,61,0.00,,,0.00,weatherlink.com 1.10,2013-02-01 19:20:00,
2013-02-01 12:35:00,29.0,17.0,30.15,SE,128,1.0,5.0,61,0.00,,,0.00,weatherlink.com 1.10,2013-02-01 19:35:00,
2013-02-01 12:50:00,28.5,16.0,30.14,NNE,23,2.0,5.0,61,0.00,,,0.00,weatherlink.com 1.10,2013-02-01 19:50:00,
2013-02-01 13:05:00,27.5,18.0,30.14,NE,49,4.0,5.0,68,0.00,,,0.00,weatherlink.com 1.10,2013-02-01 20:05:00,
2013-02-01 13:20:00,26.8,19.0,30.15,SSW,198,0.0,5.0,71,0.00,,,0.00,weatherlink.com 1.10,2013-02-01 20:20:00,
2013-02-01 13:35:00,26.5,17.0,30.16,SSE,165,0.0,6.0,68,0.00,,,0.00,weatherlink.com 1.10,2013-02-01 20:35:00,
2013-02-01 13:50:00,27.7,15.0,30.16,South,188,1.0,7.0,59,0.00,,,0.00,weatherlink.com 1.10,2013-02-01 20:50:00,
2013-02-01 14:05:00,28.4,12.0,30.16,SSE,158,1.0,7.0,51,0.00,,,0.00,weatherlink.com 1.10,2013-02-01 21:05:00,
2013-02-01 14:20:00,28.2,14.0,30.16,SE,143,2.0,10.0,56,0.00,,,0.00,weatherlink.com 1.10,2013-02-01 21:20:00,
2013-02-01 14:35:00,28.5,13.0,30.16,West,281,2.0,8.0,52,0.00,,,0.00,weatherlink.com 1.10,2013-02-01 21:35:00,
2013-02-01 14:50:00,28.7,13.0,30.16,West,261,0.0,4.0,52,0.00,,,0.00,weatherlink.com 1.10,2013-02-01 21:50:00,
2013-02-01 15:20:00,29.3,12.0,30.17,West,270,0.0,2.0,48,0.00,,,0.00,weatherlink.com 1.10,2013-02-01 22:20:00,
2013-02-01 15:35:00,29.4,10.0,30.16,South,169,0.0,7.0,44,0.00,,,0.00,weatherlink.com 1.10,2013-02-01 22:35:00,
2013-02-01 15:50:00,28.9,11.0,30.17,South,174,1.0,8.0,48,0.00,,,0.00,weatherlink.com 1.10,2013-02-01 22:50:00,
2013-02-01 16:05:00,28.3,11.0,30.17,SW,221,1.0,10.0,49,0.00,,,0.00,weatherlink.com 1.10,2013-02-01 23:05:00,
2013-02-01 16:20:00,28.1,12.0,30.16,ESE,123,3.0,9.0,51,0.00,,,0.00,weatherlink.com 1.10,2013-02-01 23:20:00,
2013-02-01 16:35:00,27.8,12.0,30.16,South,187,3.0,11.0,52,0.00,,,0.00,weatherlink.com 1.10,2013-02-01 23:35:00,
2013-02-01 16:50:00,27.5,10.0,30.15,NNE,32,1.0,12.0,49,0.00,,,0.00,weatherlink.com 1.10,2013-02-01 23:50:00,
2013-02-01 17:05:00,27.3,12.0,30.16,NE,34,3.0,13.0,52,0.00,,,0.00,weatherlink.com 1.10,2013-02-02 00:05:00,
2013-02-01 17:20:00,27.3,12.0,30.12,WNW,297,8.0,19.0,52,0.00,,,0.00,weatherlink.com 1.10,2013-02-02 00:20:00,
2013-02-01 17:35:00,27.0,11.0,30.13,SSE,166,6.0,20.0,52,0.00,,,0.00,weatherlink.com 1.10,2013-02-02 00:35:00,
2013-02-01 17:50:00,26.9,12.0,30.13,WSW,250,2.0,26.0,53,0.00,,,0.00,weatherlink.com 1.10,2013-02-02 00:50:00,
2013-02-01 18:05:00,26.5,10.0,30.14,NW,317,14.0,15.0,51,0.00,,,0.00,weatherlink.com 1.10,2013-02-02 01:05:00,
2013-02-01 18:20:00,26.3,12.0,30.15,NW,314,6.0,16.0,56,0.00,,,0.00,weatherlink.com 1.10,2013-02-02 01:20:00,
2013-02-01 18:35:00,25.7,13.0,30.16,SSW,198,13.0,22.0,60,0.00,,,0.00,weatherlink.com 1.10,2013-02-02 01:35:00,
2013-02-01 18:50:00,25.6,14.0,30.14,West,259,6.0,28.0,63,0.00,,,0.00,weatherlink.com 1.10,2013-02-02 01:50:00,
2013-02-01 19:05:00,25.7,13.0,30.15,SW,221,16.0,22.0,60,0.00,,,0.00,weatherlink.com 1.10,2013-02-02 02:05:00,
2013-02-01 19:20:00,26.2,13.0,30.16,South,182,11.0,18.0,57,0.00,,,0.00,weatherlink.com 1.10,2013-02-02 02:20:00,
2013-02-01 19:35:00,26.3,13.0,30.16,ESE,117,8.0,21.0,58,0.00,,,0.00,weatherlink.com 1.10,2013-02-02 02:35:00,
2013-02-01 19:50:00,25.9,14.0,30.16,SSW,197,3.0,19.0,60,0.00,,,0.00,weatherlink.com 1.10,2013-02-02 02:50:00,
2013-02-01 20:05:00,26.1,13.0,30.18,East,81,6.0,22.0,58,0.00,,,0.00,weatherlink.com 1.10,2013-02-02 03:05:00,
2013-02-01 20:20:00,26.4,13.0,30.19,WSW,255,10.0,20.0,58,0.00,,,0.00,weatherlink.com 1.10,2013-02-02 03:20:00,
2013-02-01 20:36:00,26.5,13.0,30.22,SSW,195,5.0,22.0,56,0.00,,,0.00,weatherlink.com 1.10,2013-02-02 03:36:00,
2013-02-01 20:51:00,26.5,11.0,30.23,NNE,33,8.0,16.0,53,0.00,,,0.00,weatherlink.com 1.10,2013-02-02 03:51:00,
2013-02-01 21:06:00,26.6,12.0,30.24,SSE,160,5.0,22.0,54,0.00,,,0.00,weatherlink.com 1.10,2013-02-02 04:06:00,
2013-02-01 21:21:00,26.5,11.0,30.23,NNE,30,5.0,30.0,53,0.00,,,0.00,weatherlink.com 1.10,2013-02-02 04:21:00,
2013-02-01 21:36:00,26.5,12.0,30.23,NE,48,5.0,19.0,54,0.00,,,0.00,weatherlink.com 1.10,2013-02-02 04:36:00,
2013-02-01 21:51:00,26.3,13.0,30.24,WNW,292,6.0,14.0,57,0.00,,,0.00,weatherlink.com 1.10,2013-02-02 04:51:00,
2013-02-01 22:06:00,26.2,11.0,30.21,SSE,160,3.0,19.0,53,0.00,,,0.00,weatherlink.com 1.10,2013-02-02 05:06:00,
2013-02-01 22:21:00,26.3,10.0,30.22,WSW,254,4.0,24.0,50,0.00,,,0.00,weatherlink.com 1.10,2013-02-02 05:21:00,
2013-02-01 22:36:00,26.2,11.0,30.23,SW,233,2.0,35.0,52,0.00,,,0.00,weatherlink.com 1.10,2013-02-02 05:36:00,
2013-02-01 22:51:00,25.7,11.0,30.21,East,84,11.0,24.0,54,0.00,,,0.00,weatherlink.com 1.10,2013-02-02 05:51:00,
2013-02-01 23:06:00,25.9,11.0,30.22,SSW,213,12.0,17.0,53,0.00,,,0.00,weatherlink.com 1.10,2013-02-02 06:06:00,
2013-02-01 23:21:00,25.8,11.0,30.21,SSE,158,8.0,22.0,53,0.00,,,0.00,weatherlink.com 1.10,2013-02-02 06:21:00,
2013-02-01 23:36:00,26.1,10.0,30.24,South,182,4.0,23.0,51,0.00,,,0.00,weatherlink.com 1.10,2013-02-02 06:36:00,
2013-02-01 23:51:00,26.5,10.0,30.24,SSW,207,10.0,19.0,51,0.00,,,0.00,weatherlink.com 1.10,2013-02-02 06:51:00,